Location: Elstree
(51.6403°N, 0.2969°W)
Time: 13:43:05
(UTC+00:00)

Cosmos 1354 Rocket - Pass Details

Date: 21 June 2021
Orbit: 764 x 783 km, 74.0° (Epoch: 25 July)

Event Time Altitude Azimuth Distance (km) Brightness Sun altitude
Rises 22:49:17 0° 331° (NNW) 3,285 9.1 -13.2°
Reaches altitude 10° 22:51:44 10° 327° (NNW) 2,352 7.8 -13.3°
Maximum altitude 22:56:53 50° 253° (WSW) 994 4.6 -13.5°
Enters shadow 23:00:35 18° 185° (S) 1,827 5.4 -13.7°
